Regional Weather Roundup
Issued by NWS San Diego, CA

Home | Current Version | Previous Version | Text Only | Print | Product List | Glossary On
Versions: 1 2 3 4 5 6 7 8 9 10 11 12 13 14 15 16 17 18 19 20 21 22 23 24 25 26 27 28 29 30 31 32 33 34 35 36 37 38 39 40 41 42 43 44 45 46 47 48 49 50
000
ASUS46 KSGX 240611
RWRSGX

SAN DIEGO HOURLY WEATHER ROUNDUP
NATIONAL WEATHER SERVICE SAN DIEGO CA
1100 PM PDT THU MAR 23 2017

NOTE: "FAIR" INDICATES FEW OR NO CLOUDS BELOW 12,000 FEET WITH NO
SIGNIFICANT WEATHER AND/OR OBSTRUCTIONS TO VISIBILITY.

CAZ042-043-060-061-PZZ750-775-240700-

GREATER SAN DIEGO AREA

CITY           SKY/WX    TMP DP  RH WIND       PRES   REMARKS
SAN DIEGO AP   PTCLDY    59  46  62 CALM      30.25S
NATIONAL CITY    N/A     57  48  72 CALM      30.24S
CHULA VISTA      N/A     53  48  85 CALM      30.17R
IMPERIAL BEACH PTCLDY    50  45  83 CALM      30.25R
BROWN FIELD    CLEAR     49  46  90 E3        30.24R
MIRAMAR MCAS   PTCLDY    51  44  77 E3        30.23S
MONTGOMERY FLD CLEAR     53  44  71 CALM      30.24R

$$

NORTH SAN DIEGO COUNTY

CITY           SKY/WX    TMP DP  RH WIND       PRES   REMARKS
CAMP PENDLETON CLEAR     49  47  93 NE5       30.24R
OCEANSIDE AP   CLEAR     50  47  89 CALM      30.23R
OCEANSIDE HBR    N/A     53  48  84 E6        30.26R
VISTA            N/A     51  47  85 CALM      30.22R
CARLSBAD       CLEAR     54  47  77 CALM      30.22S
DEL MAR          N/A     53  48  84 CALM      30.26R
LA JOLLA SCRIP   N/A     54  49  82 NE3       30.23S
FALLBROOK        N/A     51  50  97 CALM      30.21R
ESCONDIDO        N/A     53  47  79 CALM      30.25R
SAN MARCOS       N/A     52  46  79 CALM      30.25R
POWAY            N/A     48  44  84 CALM      30.26R

$$

EAST SAN DIEGO COUNTY

CITY           SKY/WX    TMP DP  RH WIND       PRES   REMARKS
RAMONA         CLEAR     42  41  96 CALM      30.23R
SANTEE LAKES     N/A     49  45  86 NW1       30.24R
LA MESA          N/A     52  46  82 CALM      30.18R
JAMUL            N/A     46  43  89 CALM      30.25R
DESCANSO N       N/A     39  37  92 W2        30.20S
CAMPO            N/A     41  40  96 CALM      30.18R

$$

ORANGE COUNTY AND THE LOS ANGELES BASIN

CITY           SKY/WX    TMP DP  RH WIND       PRES   REMARKS
JOHN WAYNE AP  CLEAR     56  49  77 SE5       30.22S
LAGUNA BEACH     N/A    N/A N/A N/A N1        30.18S
LAKE FOREST FR   N/A     51  42  72 CALM      30.13R
HUNTINGTON BCH   N/A     55  52  90 CALM      30.23S
LOS ALAMITOS   FAIR      55  51  86 SE5       30.21S
FULLERTON      CLEAR     57  51  80 SE3       30.21S
LONG BEACH     CLEAR     57  50  77 CALM      30.21S
L.A. AP        CLEAR     57  52  83 S5        30.21R
L.A. DOWNTOWN  CLEAR     58  51  78 CALM      30.21R

$$

THE INLAND EMPIRE

CITY           SKY/WX    TMP DP  RH WIND       PRES   REMARKS
CORONA         CLEAR     47  41  80 CALM      30.23R
CHINO          CLEAR     48  42  80 NW3       30.23R
ONTARIO        CLEAR     51  42  71 W8        30.22R
SAN BERNARDINO FAIR      55  37  52 W3        30.23R
RIVERSIDE AP   CLEAR     53  41  63 CALM      30.22R
MORENO VALLEY    N/A     49  44  82 CALM      28.31R
MARCH ARB      CLEAR     47  41  81 S5        30.22R
HORSETHIEF CYN   N/A     49  38  66 CALM      30.24R
PERRIS           N/A     50  44  80 SE1       30.23R
HEMET EAST       N/A     47  38  71 CALM      30.29S
FRENCH VALLEY  FAIR      48  45  87 CALM      30.23S
TEMECULA         N/A     51  48  87 CALM      30.30R

$$

SAN BERNARDINO AND RIVERSIDE COUNTY MOUNTAINS

CITY           SKY/WX    TMP DP  RH WIND       PRES   REMARKS
BIG BEAR AP    CLEAR     28  23  80 CALM      30.25R
PINE COVE        N/A     37  31  78 N3        30.27R

$$

SOUTHERN DESERT INCLUDING THE COACHELLA VALLEY

CITY           SKY/WX    TMP DP  RH WIND       PRES   REMARKS
PALM SPRINGS   CLEAR     65  39  38 NW15      30.12R
PALM DESERT      N/A     64  42  45 NW3       28.75S
THERMAL        CLEAR     66  41  40 NW17G25   30.08R
BLYTHE         CLEAR     65  41  41 W12       30.07R
IMPERIAL AP    CLEAR     58  43  57 W9        30.10R
EL CENTRO NAS  CLEAR     61  38  42 W10       30.12R
YUMA AZ        CLEAR     63  40  42 W8        30.11R
MEXICALI       CLEAR     61  37  41 W12       30.11R

$$

UPPER DESERT

CITY           SKY/WX    TMP DP  RH WIND       PRES   REMARKS
VICTORVILLE AP CLEAR     45  34  65 SW6       30.19S
HESPERIA         N/A     46  38  73 W6        30.32R
PALMDALE       CLEAR     48  35  60 CALM      30.19R
LANCASTER      CLEAR     48  29  47 W14G24    30.19R
EDWARDS AFB    CLEAR     47  31  53 SW13      30.15S
DAGGETT        CLEAR     52  25  35 W16       30.17R
29 PALMS N     CLEAR     59  32  36 NW10      30.20R
NEEDLES        CLEAR     69  24  18 W17       30.04R

$$

REGIONAL REPORTS

CITY           SKY/WX    TMP DP  RH WIND       PRES   REMARKS
SANTA BARBARA  CLEAR     55  44  66 E5        30.18R
SANDBERG       CLEAR     44  21  40 N18G25    30.23R
LAS VEGAS NV   PTCLDY    60  36  40 N3        30.08R
PHOENIX AZ     CLEAR     61  36  39 SW3       30.06R
TIJUANA        CLEAR     54  45  71 CALM      30.26R
ENSENADA NW      N/A     55  32  41 N7        30.23R

$$

OFFSHORE ISLANDS

CITY           SKY/WX    TMP DP  RH WIND       PRES   REMARKS
CATALINA ARPT  FOG       48  48 100 SW5       30.22R VSB 1/2
SAN NICOLAS IS CLEAR    N/A N/A N/A NW23G30   30.22R

$$

MARINE AND OFFSHORE BUOY REPORTS

STATION/POSITION SKY/WX   TEMP    WIND        PRES    VSBY  SWELL
                          AIR SEA DIR/SP/G                  HT/PER/DIR
                          (F)     (DEG/KT/KT) (MB)    (MI)  (FT/S/D)
TANNER BANKS               57 59  320/ 16/ 19 1024.1R         7/290/14
S CLEMENTE BASIN           57 59  310/ 12/ 16 1023.8R         7/320/16
SAN NICOLAS IS.               56                N/A           5/230/15
SO. S. ROSA ISLA           55 57  300/ 21/ 25 1023.0S         7/300/10
W. S. BARBARA CH           55 57  330/ 19/ 23 1023.2S         7/290/10
M. S. BARBARA CH                                N/A           3/280/11
S. MONICA BASIN            58 58  220/  4/  6 1022.5R         7/270/ 7
S PEDRO CHANNEL               59                N/A           3/240/14
CMP PENDLETON NS              61                N/A           3/200/17
OCEANSIDE OFFSHR              61                N/A           3/180/17
TORREY PINES OTR              62                N/A           3/280/11
POINT LOMA SOUTH              61                N/A           5/170/17

$$




USA.gov is the U.S. government's official web portal to all federal, state and local government web resources and services.